| time (UTC) | temp F | wind direction | speed MPH | gust MPH | rain 1hr in | rain 24hr in | rain mn in | humidity % | barometer mb |
| 20260505022555 | 63 | 261 | 0.0 | 2.0 | 0.00 | 0.00 | 0.00 | 23 | 1013.6 |
| 20260505022046 | 64 | 257 | 0.0 | 2.0 | 0.00 | 0.00 | 0.00 | 23 | 1013.5 |
| 20260505021554 | 64 | 257 | 0.0 | 3.0 | 0.00 | 0.00 | 0.00 | 23 | 1013.6 |
| 20260505021059 | 64 | 257 | 0.0 | 3.0 | 0.00 | 0.00 | 0.00 | 23 | 1013.6 |
| 20260505020502 | 64 | 263 | 0.0 | 2.0 | 0.00 | 0.00 | 0.00 | 23 | 1013.5 |
| 20260505020105 | 64 | 266 | 0.0 | 3.0 | 0.00 | 0.00 | 0.00 | 23 | 1013.4 |
| 20260505015554 | 65 | 261 | 1.0 | 3.0 | 0.00 | 0.00 | 0.00 | 22 | 1013.5 |
| 20260505015100 | 65 | 284 | 0.0 | 2.0 | 0.00 | 0.00 | 0.00 | 23 | 1013.4 |
| 20260505014504 | 65 | 279 | 0.0 | 3.0 | 0.00 | 0.00 | 0.00 | 23 | 1013.4 |
| 20260505014058 | 65 | 309 | 0.0 | 3.0 | 0.00 | 0.00 | 0.00 | 23 | 1013.4 |
| 20260505013502 | 65 | 273 | 0.0 | 3.0 | 0.00 | 0.00 | 0.00 | 23 | 1013.3 |
| 20260505013101 | 65 | 277 | 0.0 | 7.0 | 0.00 | 0.00 | 0.00 | 22 | 1013.5 |
| 20260505012603 | 65 | 311 | 3.0 | 7.0 | 0.00 | 0.00 | 0.00 | 22 | 1013.5 |
| 20260505012053 | 66 | 297 | 1.0 | 6.0 | 0.00 | 0.00 | 0.00 | 22 | 1013.4 |
| 20260505011603 | 66 | 267 | 3.0 | 6.0 | 0.00 | 0.00 | 0.00 | 22 | 1013.4 |
| 20260505011051 | 66 | 269 | 2.0 | 5.0 | 0.00 | 0.00 | 0.00 | 22 | 1013.5 |
| 20260505010558 | 66 | 273 | 3.0 | 4.0 | 0.00 | 0.00 | 0.00 | 22 | 1013.5 |
| 20260505010105 | 66 | 296 | 1.0 | 4.0 | 0.00 | 0.00 | 0.00 | 22 | 1013.5 |
| 20260505005557 | 66 | 284 | 1.0 | 4.0 | 0.00 | 0.00 | 0.00 | 22 | 1013.5 |
| 20260505005104 | 66 | 227 | 2.0 | 7.0 | 0.00 | 0.00 | 0.00 | 22 | 1013.7 |
| 20260505004604 | 67 | 296 | 3.0 | 7.0 | 0.00 | 0.00 | 0.00 | 22 | 1013.7 |
| 20260505004059 | 67 | 289 | 2.0 | 7.0 | 0.00 | 0.00 | 0.00 | 22 | 1013.6 |
| 20260505003605 | 67 | 219 | 2.0 | 7.0 | 0.00 | 0.00 | 0.00 | 22 | 1013.9 |
| 20260505003008 | 67 | 297 | 3.0 | 8.0 | 0.00 | 0.00 | 0.00 | 22 | 1013.7 |
| 20260505002604 | 67 | 293 | 4.0 | 8.0 | 0.00 | 0.00 | 0.00 | 22 | 1013.9 |
| 20260505002007 | 67 | 317 | 4.0 | 6.0 | 0.00 | 0.00 | 0.00 | 22 | 1013.9 |
| 20260505001629 | 67 | 315 | 4.0 | 6.0 | 0.00 | 0.00 | 0.00 | 22 | 1014.0 |
| 20260505001003 | 67 | 311 | 2.0 | 10.0 | 0.00 | 0.00 | 0.00 | 21 | 1014.1 |
| 20260505000557 | 67 | 281 | 3.0 | 10.0 | 0.00 | 0.00 | 0.00 | 21 | 1014.1 |
| 20260505000104 | 67 | 300 | 6.0 | 10.0 | 0.00 | 0.00 | 0.00 | 21 | 1014.1 |
| 20260504235556 | 67 | 284 | 1.0 | 10.0 | 0.00 | 0.00 | 0.00 | 22 | 1014.0 |
| 20260504235049 | 67 | 292 | 5.0 | 10.0 | 0.00 | 0.00 | 0.00 | 22 | 1014.0 |
| 20260504234556 | 68 | 306 | 4.0 | 8.0 | 0.00 | 0.00 | 0.00 | 22 | 1014.1 |
| 20260504234044 | 68 | 309 | 2.0 | 8.0 | 0.00 | 0.00 | 0.00 | 22 | 1014.1 |
| 20260504233534 | 68 | 310 | 3.0 | 8.0 | 0.00 | 0.00 | 0.00 | 22 | 1014.1 |
| 20260504233055 | 68 | 293 | 2.0 | 10.0 | 0.00 | 0.00 | 0.00 | 21 | 1014.2 |
| 20260504232546 | 68 | 355 | 7.0 | 10.0 | 0.00 | 0.00 | 0.00 | 22 | 1014.2 |
| 20260504232054 | 68 | 325 | 3.0 | 11.0 | 0.00 | 0.00 | 0.00 | 21 | 1014.1 |
| 20260504231600 | 68 | 302 | 5.0 | 11.0 | 0.00 | 0.00 | 0.00 | 22 | 1014.2 |
| 20260504231002 | 69 | 324 | 3.0 | 8.0 | 0.00 | 0.00 | 0.00 | 21 | 1014.3 |
| 20260504230509 | 69 | 336 | 3.0 | 8.0 | 0.00 | 0.00 | 0.00 | 21 | 1014.3 |
| 20260504230101 | 68 | 315 | 0.0 | 9.0 | 0.00 | 0.00 | 0.00 | 22 | 1014.3 |
| 20260504225556 | 68 | 305 | 1.0 | 9.0 | 0.00 | 0.00 | 0.00 | 22 | 1014.4 |
| 20260504225100 | 68 | 305 | 5.0 | 12.0 | 0.00 | 0.00 | 0.00 | 21 | 1014.4 |
| 20260504224505 | 68 | 330 | 7.0 | 12.0 | 0.00 | 0.00 | 0.00 | 22 | 1014.3 |
| 20260504224010 | 68 | 290 | 6.0 | 12.0 | 0.00 | 0.00 | 0.00 | 22 | 1014.3 |
| 20260504223605 | 68 | 278 | 8.0 | 12.0 | 0.00 | 0.00 | 0.00 | 22 | 1014.3 |
| 20260504223007 | 68 | 321 | 2.0 | 10.0 | 0.00 | 0.00 | 0.00 | 21 | 1014.3 |
| 20260504222604 | 68 | 288 | 2.0 | 10.0 | 0.00 | 0.00 | 0.00 | 21 | 1014.5 |
| 20260504222003 | 68 | 294 | 4.0 | 10.0 | 0.00 | 0.00 | 0.00 | 21 | 1014.5 |
| 20260504221559 | 67 | 272 | 5.0 | 15.0 | 0.00 | 0.00 | 0.00 | 21 | 1014.4 |
| 20260504221106 | 68 | 251 | 5.0 | 15.0 | 0.00 | 0.00 | 0.00 | 21 | 1014.6 |
| 20260504220507 | 68 | 309 | 9.0 | 13.0 | 0.00 | 0.00 | 0.00 | 21 | 1014.6 |
| 20260504220105 | 68 | 306 | 4.0 | 10.0 | 0.00 | 0.00 | 0.00 | 21 | 1014.8 |
| 20260504215556 | 69 | 277 | 4.0 | 11.0 | 0.00 | 0.00 | 0.00 | 21 | 1014.8 |
| 20260504215102 | 69 | 269 | 7.0 | 12.0 | 0.00 | 0.00 | 0.00 | 21 | 1014.9 |
| 20260504214507 | 68 | 329 | 8.0 | 13.0 | 0.00 | 0.00 | 0.00 | 21 | 1014.9 |
| 20260504214059 | 69 | 303 | 8.0 | 13.0 | 0.00 | 0.00 | 0.00 | 21 | 1014.9 |
| 20260504213503 | 69 | 316 | 3.0 | 10.0 | 0.00 | 0.00 | 0.00 | 21 | 1014.9 |
| 20260504213058 | 69 | 203 | 2.0 | 10.0 | 0.00 | 0.00 | 0.00 | 21 | 1015.1 |
| 20260504212604 | 68 | 243 | 2.0 | 12.0 | 0.00 | 0.00 | 0.00 | 21 | 1015.0 |
| 20260504212057 | 68 | 292 | 8.0 | 12.0 | 0.00 | 0.00 | 0.00 | 22 | 1015.0 |
| 20260504211546 | 68 | 317 | 5.0 | 12.0 | 0.00 | 0.00 | 0.00 | 22 | 1015.4 |
| 20260504211053 | 68 | 325 | 6.0 | 12.0 | 0.00 | 0.00 | 0.00 | 21 | 1015.4 |
| 20260504210545 | 69 | 309 | 7.0 | 14.0 | 0.00 | 0.00 | 0.00 | 22 | 1015.5 |
| 20260504210052 | 69 | 302 | 6.0 | 14.0 | 0.00 | 0.00 | 0.00 | 21 | 1015.6 |
| 20260504205556 | 70 | 293 | 3.0 | 8.0 | 0.00 | 0.00 | 0.00 | 21 | 1015.6 |
| 20260504205104 | 70 | 252 | 3.0 | 8.0 | 0.00 | 0.00 | 0.00 | 21 | 1015.5 |
| 20260504204502 | 70 | 225 | 3.0 | 11.0 | 0.00 | 0.00 | 0.00 | 21 | 1015.9 |
| 20260504204010 | 70 | 227 | 6.0 | 11.0 | 0.00 | 0.00 | 0.00 | 21 | 1015.9 |
| 20260504203502 | 70 | 199 | 1.0 | 10.0 | 0.00 | 0.00 | 0.00 | 22 | 1016.0 |
| 20260504203009 | 69 | 207 | 6.0 | 10.0 | 0.00 | 0.00 | 0.00 | 22 | 1015.9 |
| 20260504202605 | 69 | 238 | 5.0 | 10.0 | 0.00 | 0.00 | 0.00 | 22 | 1015.9 |
| 20260504202006 | 69 | 190 | 4.0 | 10.0 | 0.00 | 0.00 | 0.00 | 23 | 1016.1 |
| 20260504201601 | 69 | 202 | 1.0 | 9.0 | 0.00 | 0.00 | 0.00 | 23 | 1016.1 |
| 20260504201053 | 70 | 223 | 5.0 | 12.0 | 0.00 | 0.00 | 0.00 | 22 | 1016.2 |
| 20260504200600 | 70 | 199 | 5.0 | 10.0 | 0.00 | 0.00 | 0.00 | 21 | 1016.1 |
| 20260504200054 | 69 | 311 | 4.0 | 9.0 | 0.00 | 0.00 | 0.00 | 22 | 1016.3 |
| 20260504195557 | 69 | 254 | 2.0 | 11.0 | 0.00 | 0.00 | 0.00 | 23 | 1016.3 |
| 20260504195102 | 68 | 234 | 4.0 | 11.0 | 0.00 | 0.00 | 0.00 | 23 | 1016.4 |
| 20260504194506 | 68 | 273 | 3.0 | 11.0 | 0.00 | 0.00 | 0.00 | 24 | 1016.5 |
| 20260504194101 | 67 | 208 | 5.0 | 11.0 | 0.00 | 0.00 | 0.00 | 24 | 1016.4 |
| 20260504193506 | 67 | 270 | 5.0 | 11.0 | 0.00 | 0.00 | 0.00 | 26 | 1016.4 |
| 20260504193109 | 67 | 298 | 6.0 | 12.0 | 0.00 | 0.00 | 0.00 | 25 | 1016.5 |
| 20260504192551 | 67 | 226 | 4.0 | 12.0 | 0.00 | 0.00 | 0.00 | 26 | 1016.5 |
| 20260504192058 | 67 | 219 | 5.0 | 10.0 | 0.00 | 0.00 | 0.00 | 25 | 1016.4 |
| 20260504191615 | 67 | 285 | 2.0 | 11.0 | 0.00 | 0.00 | 0.00 | 26 | 1016.4 |
| 20260504191007 | 67 | 280 | 5.0 | 12.0 | 0.00 | 0.00 | 0.00 | 26 | 1016.5 |
| 20260504190604 | 67 | 267 | 4.0 | 11.0 | 0.00 | 0.00 | 0.00 | 26 | 1016.4 |
| 20260504190006 | 66 | 259 | 4.0 | 10.0 | 0.00 | 0.00 | 0.00 | 27 | 1016.6 |
| 20260504185600 | 66 | 188 | 3.0 | 9.0 | 0.00 | 0.00 | 0.00 | 27 | 1016.8 |
| 20260504185002 | 65 | 217 | 4.0 | 9.0 | 0.00 | 0.00 | 0.00 | 28 | 1016.7 |
| 20260504184557 | 65 | 286 | 3.0 | 10.0 | 0.00 | 0.00 | 0.00 | 29 | 1016.8 |
| 20260504184048 | 65 | 281 | 4.0 | 9.0 | 0.00 | 0.00 | 0.00 | 29 | 1016.8 |
| 20260504183557 | 65 | 259 | 3.0 | 8.0 | 0.00 | 0.00 | 0.00 | 30 | 1016.9 |
| 20260504183046 | 64 | 277 | 3.0 | 13.0 | 0.00 | 0.00 | 0.00 | 30 | 1016.9 |
| 20260504182555 | 64 | 284 | 4.0 | 13.0 | 0.00 | 0.00 | 0.00 | 30 | 1016.9 |
| 20260504182103 | 64 | 290 | 5.0 | 12.0 | 0.00 | 0.00 | 0.00 | 29 | 1017.0 |
| 20260504181506 | 64 | 304 | 4.0 | 12.0 | 0.00 | 0.00 | 0.00 | 30 | 1017.1 |
| 20260504181058 | 64 | 249 | 5.0 | 10.0 | 0.00 | 0.00 | 0.00 | 29 | 1017.1 |
| 20260504180607 | 64 | 298 | 5.0 | 14.0 | 0.00 | 0.00 | 0.00 | 29 | 1017.3 |
| 20260504180058 | 64 | 274 | 4.0 | 12.0 | 0.00 | 0.00 | 0.00 | 29 | 1017.3 |
| 20260504175504 | 63 | 241 | 6.0 | 12.0 | 0.00 | 0.00 | 0.00 | 29 | 1017.3 |
| 20260504175057 | 63 | 268 | 4.0 | 11.0 | 0.00 | 0.00 | 0.00 | 30 | 1017.1 |
| 20260504174605 | 63 | 288 | 4.0 | 11.0 | 0.00 | 0.00 | 0.00 | 31 | 1017.2 |
| 20260504174056 | 63 | 202 | 5.0 | 11.0 | 0.00 | 0.00 | 0.00 | 31 | 1017.1 |
| 20260504173550 | 62 | 212 | 2.0 | 8.0 | 0.00 | 0.00 | 0.00 | 32 | 1017.2 |
| 20260504173054 | 62 | 330 | 3.0 | 9.0 | 0.00 | 0.00 | 0.00 | 34 | 1017.2 |
| 20260504172600 | 62 | 275 | 4.0 | 9.0 | 0.00 | 0.00 | 0.00 | 34 | 1017.3 |
| 20260504172004 | 61 | 188 | 4.0 | 9.0 | 0.00 | 0.00 | 0.00 | 34 | 1017.4 |
| 20260504171559 | 61 | 261 | 2.0 | 10.0 | 0.00 | 0.00 | 0.00 | 35 | 1017.3 |
| 20260504171003 | 61 | 281 | 4.0 | 10.0 | 0.00 | 0.00 | 0.00 | 36 | 1017.3 |
| 20260504170508 | 60 | 267 | 4.0 | 11.0 | 0.00 | 0.00 | 0.00 | 37 | 1017.3 |
| 20260504160124 | 57 | 304 | 3.0 | 8.0 | 0.00 | 0.00 | 0.00 | 45 | 1017.4 |
| 20260504151050 | 56 | 294 | 1.0 | 2.0 | 0.00 | 0.00 | 0.00 | 47 | 1017.7 |
| 20260504150539 | 56 | 271 | 0.0 | 2.0 | 0.00 | 0.00 | 0.00 | 46 | 1017.6 |
| 20260504141002 | 53 | 110 | 0.0 | 3.0 | 0.00 | 0.00 | 0.00 | 52 | 1017.4 |
| 20260504140509 | 53 | 116 | 1.0 | 3.0 | 0.00 | 0.00 | 0.00 | 53 | 1017.5 |
| 20260504130534 | 52 | 76 | 4.0 | 10.0 | 0.00 | 0.00 | 0.00 | 55 | 1016.8 |
| 20260504110555 | 54 | 73 | 3.0 | 6.0 | 0.00 | 0.00 | 0.00 | 47 | 1016.5 |
| 20260504100519 | 55 | 32 | 3.0 | 10.0 | 0.00 | 0.00 | 0.00 | 45 | 1016.3 |
| 20260504100104 | 55 | 360 | 4.0 | 10.0 | 0.00 | 0.00 | 0.00 | 45 | 1016.3 |
| 20260504082003 | 57 | 118 | 4.0 | 9.0 | 0.00 | 0.00 | 0.00 | 41 | 1016.2 |
| 20260504081556 | 57 | 103 | 3.0 | 7.0 | 0.00 | 0.00 | 0.00 | 40 | 1016.1 |
| 20260504081104 | 57 | 103 | 2.0 | 5.0 | 0.00 | 0.00 | 0.00 | 40 | 1016.2 |
| 20260504080555 | 57 | 127 | 2.0 | 5.0 | 0.00 | 0.00 | 0.00 | 40 | 1016.2 |
| 20260504050542 | 62 | 286 | 0.0 | 2.0 | 0.00 | 0.00 | 0.00 | 33 | 1017.0 |
| 20260504045543 | 63 | 9 | 1.0 | 3.0 | 0.00 | 0.00 | 0.00 | 32 | 1016.8 |
| 20260504045045 | 63 | 9 | 1.0 | 3.0 | 0.00 | 0.00 | 0.00 | 32 | 1016.7 |
| 20260504044600 | 63 | 309 | 1.0 | 3.0 | 0.00 | 0.00 | 0.00 | 32 | 1016.7 |
| 20260504044059 | 63 | 277 | 1.0 | 3.0 | 0.00 | 0.00 | 0.00 | 32 | 1016.8 |
| 20260504043550 | 64 | 275 | 0.0 | 3.0 | 0.00 | 0.00 | 0.00 | 32 | 1016.8 |
| 20260504043056 | 64 | 229 | 0.0 | 5.0 | 0.00 | 0.00 | 0.00 | 31 | 1016.9 |
| 20260504042606 | 64 | 185 | 0.0 | 8.0 | 0.00 | 0.00 | 0.00 | 31 | 1016.9 |
| 20260504042006 | 64 | 207 | 2.0 | 10.0 | 0.00 | 0.00 | 0.00 | 31 | 1017.2 |
| 20260504041600 | 64 | 189 | 1.0 | 12.0 | 0.00 | 0.00 | 0.00 | 30 | 1017.1 |
| 20260504041002 | 65 | 212 | 6.0 | 12.0 | 0.00 | 0.00 | 0.00 | 29 | 1017.1 |
| 20260504040558 | 65 | 213 | 3.0 | 8.0 | 0.00 | 0.00 | 0.00 | 26 | 1017.0 |
| 20260504040120 | 65 | 238 | 3.0 | 7.0 | 0.00 | 0.00 | 0.00 | 26 | 1017.0 |
| 20260504035559 | 66 | 274 | 2.0 | 9.0 | 0.00 | 0.00 | 0.00 | 25 | 1017.0 |
| 20260504035101 | 66 | 240 | 3.0 | 8.0 | 0.00 | 0.00 | 0.00 | 25 | 1017.0 |
| 20260504034502 | 66 | 230 | 2.0 | 8.0 | 0.00 | 0.00 | 0.00 | 24 | 1016.9 |
| 20260504034059 | 66 | 202 | 3.0 | 8.0 | 0.00 | 0.00 | 0.00 | 24 | 1016.9 |
| 20260504033502 | 67 | 192 | 1.0 | 12.0 | 0.00 | 0.00 | 0.00 | 24 | 1016.8 |
| 20260504033057 | 67 | 289 | 3.0 | 12.0 | 0.00 | 0.00 | 0.00 | 23 | 1016.8 |
| 20260504032604 | 67 | 232 | 3.0 | 12.0 | 0.00 | 0.00 | 0.00 | 23 | 1016.7 |
| 20260504032053 | 67 | 298 | 7.0 | 12.0 | 0.00 | 0.00 | 0.00 | 23 | 1016.7 |
| 20260504031545 | 67 | 241 | 4.0 | 10.0 | 0.00 | 0.00 | 0.00 | 23 | 1016.6 |
| 20260504031052 | 67 | 252 | 4.0 | 10.0 | 0.00 | 0.00 | 0.00 | 22 | 1016.6 |
| 20260504030600 | 67 | 223 | 3.0 | 8.0 | 0.00 | 0.00 | 0.00 | 23 | 1016.6 |
| 20260504030001 | 67 | 234 | 3.0 | 10.0 | 0.00 | 0.00 | 0.00 | 22 | 1016.4 |
| 20260504025512 | 68 | 229 | 3.0 | 11.0 | 0.00 | 0.00 | 0.00 | 22 | 1016.5 |
| 20260504025102 | 68 | 200 | 6.0 | 11.0 | 0.00 | 0.00 | 0.00 | 21 | 1016.4 |
| 20260504024552 | 67 | 219 | 2.0 | 7.0 | 0.00 | 0.00 | 0.00 | 21 | 1016.4 |
| 20260504024100 | 67 | 213 | 1.0 | 18.0 | 0.00 | 0.00 | 0.00 | 21 | 1016.3 |
| 20260504023551 | 67 | 294 | 7.0 | 18.0 | 0.00 | 0.00 | 0.00 | 22 | 1016.2 |
| 20260504023057 | 67 | 238 | 3.0 | 10.0 | 0.00 | 0.00 | 0.00 | 21 | 1016.1 |